This is the latest recevied weather packets stored in our database for station/object KA3BQE-13. If no packets are shown the sender has not sent any weather packets the latest 10 day(s).
| Time | Temp. | Humidity | Pressure | Rain* | Wind** | Luminosity | Snow |
|---|---|---|---|---|---|---|---|
| 1777757518 | 12.78° C | 41% | 1019.9 hPa | 0 mm | - | 241 W/m² | - |
| 1777757216 | 13.33° C | 38% | 1019.8 hPa | 0 mm | - | 212 W/m² | - |
| 1777756914 | 13.89° C | 41% | 1019.9 hPa | 0 mm | - | 442 W/m² | - |
| 1777756610 | 12.78° C | 40% | 1019.9 hPa | 0 mm | - | 432 W/m² | - |
| 1777756307 | 13.89° C | 39% | 1019.9 hPa | 0 mm | - | 224 W/m² | - |
| 1777756004 | 12.78° C | 37% | 1020 hPa | 0 mm | - | 749 W/m² | - |
| 1777755701 | 13.89° C | 45% | 1019.9 hPa | 0 mm | - | 280 W/m² | - |
| 1777755398 | 12.78° C | 37% | 1020.2 hPa | 0 mm | - | 318 W/m² | - |
| 1777755095 | 13.33° C | 34% | 1019.9 hPa | 0 mm | - | 253 W/m² | - |
| 1777754791 | 15° C | 39% | 1020.2 hPa | 0 mm | - | 336 W/m² | - |
| 1777754484 | 14.44° C | 41% | 1020.2 hPa | 0 mm | - | 772 W/m² | - |
| 1777754181 | 13.33° C | 44% | 1020.2 hPa | 0 mm | - | 423 W/m² | - |
| 1777753879 | 13.33° C | 42% | 1020.4 hPa | 0 mm | - | 256 W/m² | - |
| 1777753573 | 13.33° C | 44% | 1020.4 hPa | 0 mm | - | 247 W/m² | - |
| 1777753266 | 13.89° C | 45% | 1020.4 hPa | 0 mm | - | 191 W/m² | - |
| 1777752962 | 13.33° C | 39% | 1020.3 hPa | 0 mm | - | 879 W/m² | - |
| 1777752658 | 15° C | 37% | 1020.6 hPa | 0 mm | - | 636 W/m² | - |
| 1777752354 | 14.44° C | 36% | 1020.6 hPa | 0 mm | - | 412 W/m² | - |
| 1777752052 | 14.44° C | 37% | 1020.7 hPa | 0 mm | - | 298 W/m² | - |
| 1777751749 | 13.89° C | 37% | 1020.7 hPa | 0 mm | - | 840 W/m² | - |
| 1777751446 | 12.78° C | 41% | 1020.7 hPa | 0 mm | - | 349 W/m² | - |
| 1777751142 | 12.78° C | 40% | 1020.7 hPa | 0 mm | - | 331 W/m² | - |
| 1777750838 | 12.78° C | 42% | 1020.9 hPa | 0 mm | - | 353 W/m² | - |
| 1777750536 | 12.78° C | 42% | 1021 hPa | 0 mm | - | 292 W/m² | - |
| 1777750232 | 12.78° C | 40% | 1021 hPa | 0 mm | - | 275 W/m² | - |
* Rain latest hour (hover to see other rain measurements)
** Current wind speed in m/s (hover to see current wind gust speed)